EUTELSAT 5 WEST B (EGN*)

Last updated on Sun Jun 21 2026 00:03:34 GMT+0000 (Coordinated Universal Time)

1 44624U 19067A 26171.39103049 -.00000047 00000+0 00000+0 0 9999 2 44624 0.0621 352.3440 0003110 96.7408 315.3001 1.00270225 24469
UTC large
Height (km)
Speed (km/s)
/
Latitude / Longitude
Inclination (degrees)
Orbital Period (minutes)
Azimuth
Elevation
Range (km)
Doppler Factor

Next 0 passes for location: London (51.5072 / 0.1276)

No passes found over London.
EUTELSAT 5 WEST B (EGN*)